Terminal Aerodrome Forecast
Issued by NWS

Home | Current Version | Previous Version | Text Only | Print | Product List | Glossary Off
Versions: 1 2 3 4 5 6 7 8 9 10 11 12 13 14 15 16 17 18 19 20 21 22 23 24 25

000
FTUS43 KABR 060417 AAC
TAFMBG
TAF AMD
KMBG 060417Z 0604/0624 36009KT 5SM -SHRA BR BKN060
     FM060900 35008KT P6SM BKN050
     FM061700 35014G22KT P6SM SCT050=

USA.gov is the U.S. government's official web portal to all federal, state and local government web resources and services.